Location: Seattle
(47.6064°N, 122.3308°W)
Time: 22:37:39
(UTC-07:00)

AO-7 - Visible Passes

Search period start: 20 March 2023 00:00
Search period end: 30 March 2023 00:00
Orbit: 1440 x 1458 km, 101.9° (Epoch: 20 March)

Date Brightness Start Highest point End Pass type
(mag) Time Alt. Az. Time Alt. Az. Time Alt. Az.
20 Mar ? 04:06:12 10° NE 04:10:05 14° E 04:13:57 10° ESE visible
20 Mar ? 05:56:08 10° NNE 06:04:28 65° ESE 06:12:43 10° S visible
21 Mar ? 04:56:49 10° NE 05:03:59 31° E 05:11:04 10° SSE visible
22 Mar ? 03:59:56 10° ENE 04:02:51 12° E 04:05:44 10° ESE visible
22 Mar ? 05:49:06 10° NNE 05:57:22 60° ESE 06:05:33 10° S visible
23 Mar ? 04:49:55 10° NE 04:56:49 28° E 05:03:38 10° SSE visible
24 Mar ? 03:54:26 10° ENE 03:55:35 10° E 03:56:44 10° E visible
24 Mar ? 05:42:05 10° NNE 05:50:16 55° ESE 05:58:22 10° S visible
25 Mar ? 04:43:03 10° NE 04:49:38 25° E 04:56:09 10° SE visible
26 Mar ? 05:35:04 10° NNE 05:43:09 50° ESE 05:51:09 10° S visible
27 Mar ? 04:36:12 10° NE 04:42:27 23° E 04:48:37 10° SE visible
28 Mar ? 05:28:04 10° NNE 05:36:01 46° E 05:43:54 10° S visible
29 Mar ? 04:29:25 10° NE 04:35:15 20° E 04:41:01 10° SE visible
29 Mar ? 06:20:44 10° NNE 06:29:09 85° ESE 06:37:29 10° SSW visible
